When you browse on this site, cookies collect data to enhance your experience and personalize the content and advertising you see.
Visit our Privacy Policy to learn more. By continuing to use the site, you agree to this use of cookies and data.

Meteo pe oră la Middlesbrough

Astăzi, 4 August, Marţi

Timp Temperatura Precipitaţii Vânt Presiune Umiditate
00:00 +10°C° 0 mm 2 m/s 760 mmHg 85%
01:00 +10°C° 0 mm 2 m/s 760 mmHg 85%
02:00 +10°C° 0 mm 2 m/s 760 mmHg 85%
03:00 +10°C° 0 mm 2 m/s 760 mmHg 84%
04:00 +10°C° 0 mm 3 m/s 760 mmHg 84%
05:00 +11°C° 0 mm 3 m/s 759 mmHg 84%
06:00 +11°C° 0 mm 3 m/s 759 mmHg 83%
07:00 +12°C° 0.2 mm 4 m/s 759 mmHg 84%
08:00 +12°C° 0.2 mm 5 m/s 759 mmHg 86%
09:00 +12°C° 0.2 mm 5 m/s 758 mmHg 87%
10:00 +11°C° 1.2 mm 6 m/s 758 mmHg 87%
11:00 +11°C° 1.2 mm 7 m/s 757 mmHg 88%
12:00 +11°C° 1.2 mm 8 m/s 756 mmHg 89%
13:00 +12°C° 0.2 mm 8 m/s 756 mmHg 86%
14:00 +15°C° 0.2 mm 8 m/s 755 mmHg 83%
15:00 +16°C° 0.2 mm 9 m/s 755 mmHg 79%
16:00 +17°C° 0 mm 8 m/s 754 mmHg 79%
17:00 +17°C° 0 mm 8 m/s 753 mmHg 79%
18:00 +18°C° 0 mm 8 m/s 752 mmHg 79%
19:00 +18°C° 0 mm 8 m/s 753 mmHg 80%
20:00 +17°C° 0 mm 8 m/s 753 mmHg 81%
21:00 +17°C° 0 mm 8 m/s 753 mmHg 82%
22:00 +16°C° 0.2 mm 8 m/s 752 mmHg 83%
23:00 +16°C° 0.2 mm 8 m/s 752 mmHg 85%

Mâine, 5 August, Miercuri

Timp Temperatura Precipitaţii Vânt Presiune Umiditate
00:00 +16°C° 0.2 mm 8 m/s 752 mmHg 86%
01:00 +16°C° 0.1 mm 8 m/s 752 mmHg 87%
02:00 +16°C° 0.1 mm 8 m/s 752 mmHg 87%
03:00 +16°C° 0.1 mm 8 m/s 752 mmHg 88%
04:00 +16°C° 0.1 mm 8 m/s 752 mmHg 88%
05:00 +16°C° 0.1 mm 7 m/s 752 mmHg 87%
06:00 +16°C° 0.1 mm 7 m/s 752 mmHg 87%
07:00 +17°C° 0.2 mm 7 m/s 752 mmHg 85%
08:00 +18°C° 0.2 mm 7 m/s 753 mmHg 83%
09:00 +20°C° 0.2 mm 8 m/s 753 mmHg 81%
10:00 +21°C° 0 mm 8 m/s 753 mmHg 77%
11:00 +22°C° 0 mm 8 m/s 753 mmHg 72%
12:00 +23°C° 0 mm 8 m/s 754 mmHg 68%
13:00 +23°C° 0 mm 8 m/s 754 mmHg 69%
14:00 +23°C° 0 mm 7 m/s 754 mmHg 69%
15:00 +23°C° 0 mm 7 m/s 754 mmHg 69%
16:00 +22°C° 0.1 mm 7 m/s 754 mmHg 72%
17:00 +22°C° 0.1 mm 6 m/s 754 mmHg 75%
18:00 +21°C° 0.1 mm 6 m/s 754 mmHg 78%
19:00 +20°C° 0.3 mm 5 m/s 755 mmHg 83%
20:00 +19°C° 0.3 mm 5 m/s 755 mmHg 88%
21:00 +17°C° 0.3 mm 5 m/s 756 mmHg 92%
22:00 +18°C° 0.2 mm 4 m/s 756 mmHg 93%
23:00 +18°C° 0.2 mm 4 m/s 756 mmHg 94%

Poimâine, 6 August, Joi

Timp Temperatura Precipitaţii Vânt Presiune Umiditate
00:00 +18°C° 0.2 mm 4 m/s 756 mmHg 94%
01:00 +18°C° 0 mm 4 m/s 756 mmHg 94%
02:00 +18°C° 0 mm 4 m/s 757 mmHg 95%
03:00 +17°C° 0 mm 4 m/s 757 mmHg 95%
04:00 +18°C° 0 mm 4 m/s 757 mmHg 94%
05:00 +18°C° 0 mm 3 m/s 758 mmHg 94%
06:00 +18°C° 0 mm 3 m/s 758 mmHg 94%
07:00 +19°C° 0 mm 3 m/s 758 mmHg 90%
08:00 +20°C° 0 mm 4 m/s 759 mmHg 85%
09:00 +21°C° 0 mm 4 m/s 759 mmHg 81%
10:00 +22°C° 0.1 mm 4 m/s 759 mmHg 77%
11:00 +23°C° 0.1 mm 4 m/s 759 mmHg 73%
12:00 +25°C° 0.1 mm 4 m/s 759 mmHg 69%
13:00 +25°C° 0.1 mm 4 m/s 759 mmHg 69%
14:00 +25°C° 0.1 mm 4 m/s 759 mmHg 70%
15:00 +25°C° 0.1 mm 4 m/s 759 mmHg 70%
16:00 +25°C° 0.1 mm 4 m/s 759 mmHg 72%
17:00 +25°C° 0.1 mm 3 m/s 759 mmHg 73%
18:00 +25°C° 0.1 mm 3 m/s 759 mmHg 75%
19:00 +24°C° 0.1 mm 3 m/s 760 mmHg 79%
20:00 +21°C° 0.1 mm 3 m/s 760 mmHg 84%
21:00 +20°C° 0.1 mm 2 m/s 760 mmHg 89%
22:00 +19°C° 0 mm 2 m/s 761 mmHg 89%
23:00 +19°C° 0 mm 2 m/s 761 mmHg 89%

7 August, Vineri

Timp Temperatura Precipitaţii Vânt Presiune Umiditate
00:00 +18°C° 0 mm 2 m/s 761 mmHg 89%
01:00 +18°C° 0 mm 2 m/s 761 mmHg 88%
02:00 +18°C° 0 mm 2 m/s 761 mmHg 87%
03:00 +17°C° 0 mm 2 m/s 761 mmHg 87%
04:00 +17°C° 0 mm 2 m/s 761 mmHg 86%
05:00 +19°C° 0 mm 1 m/s 762 mmHg 85%
06:00 +19°C° 0 mm 1 m/s 762 mmHg 83%
07:00 +20°C° 0 mm 1 m/s 762 mmHg 79%
08:00 +21°C° 0 mm 1 m/s 762 mmHg 74%
09:00 +23°C° 0 mm 1 m/s 762 mmHg 69%
10:00 +23°C° 0 mm 2 m/s 762 mmHg 68%
11:00 +24°C° 0 mm 3 m/s 762 mmHg 68%
12:00 +24°C° 0 mm 3 m/s 762 mmHg 67%
13:00 +25°C° 0 mm 3 m/s 762 mmHg 64%
14:00 +26°C° 0 mm 3 m/s 762 mmHg 61%
15:00 +26°C° 0 mm 3 m/s 761 mmHg 58%
16:00 +26°C° 0 mm 3 m/s 761 mmHg 62%
17:00 +25°C° 0 mm 2 m/s 761 mmHg 66%
18:00 +25°C° 0 mm 2 m/s 761 mmHg 70%
19:00 +24°C° 0 mm 2 m/s 761 mmHg 72%
20:00 +23°C° 0 mm 1 m/s 761 mmHg 74%
21:00 +22°C° 0 mm 1 m/s 761 mmHg 76%
22:00 +22°C° 0.1 mm 1 m/s 761 mmHg 77%
23:00 +21°C° 0.1 mm 1 m/s 761 mmHg 78%

8 August, Sâmbătă

Timp Temperatura Precipitaţii Vânt Presiune Umiditate
00:00 +21°C° 0.1 mm 1 m/s 761 mmHg 79%
01:00 +19°C° 0 mm 2 m/s 761 mmHg 82%
02:00 +19°C° 0 mm 3 m/s 761 mmHg 84%
03:00 +18°C° 0 mm 4 m/s 761 mmHg 87%
04:00 +18°C° 0 mm 4 m/s 761 mmHg 87%
05:00 +17°C° 0 mm 3 m/s 762 mmHg 87%
06:00 +17°C° 0 mm 3 m/s 762 mmHg 88%
07:00 +18°C° 0 mm 3 m/s 762 mmHg 83%
08:00 +20°C° 0 mm 3 m/s 763 mmHg 77%
09:00 +21°C° 0 mm 4 m/s 763 mmHg 72%
10:00 +21°C° 0 mm 4 m/s 763 mmHg 66%
11:00 +22°C° 0 mm 4 m/s 764 mmHg 61%
12:00 +23°C° 0 mm 4 m/s 764 mmHg 55%
13:00 +22°C° 0 mm 4 m/s 764 mmHg 58%
14:00 +22°C° 0 mm 5 m/s 765 mmHg 60%
15:00 +21°C° 0 mm 5 m/s 765 mmHg 63%
16:00 +20°C° 0 mm 5 m/s 765 mmHg 69%
17:00 +19°C° 0 mm 5 m/s 766 mmHg 75%
18:00 +16°C° 0 mm 5 m/s 766 mmHg 81%
19:00 +15°C° 0 mm 4 m/s 767 mmHg 82%
20:00 +15°C° 0 mm 4 m/s 767 mmHg 83%
21:00 +14°C° 0 mm 4 m/s 767 mmHg 83%
22:00 +13°C° 0 mm 4 m/s 768 mmHg 84%
23:00 +13°C° 0 mm 3 m/s 768 mmHg 85%

9 August, Duminică

Timp Temperatura Precipitaţii Vânt Presiune Umiditate
00:00 +12°C° 0 mm 3 m/s 768 mmHg 86%
01:00 +12°C° 0 mm 3 m/s 768 mmHg 86%
02:00 +11°C° 0 mm 3 m/s 768 mmHg 86%
03:00 +11°C° 0 mm 3 m/s 768 mmHg 87%
04:00 +11°C° 0 mm 4 m/s 768 mmHg 86%
05:00 +12°C° 0 mm 4 m/s 768 mmHg 85%
06:00 +12°C° 0 mm 4 m/s 768 mmHg 85%
07:00 +13°C° 0 mm 4 m/s 768 mmHg 79%
08:00 +14°C° 0 mm 5 m/s 768 mmHg 74%
09:00 +16°C° 0 mm 5 m/s 768 mmHg 69%
10:00 +16°C° 0 mm 5 m/s 768 mmHg 67%
11:00 +16°C° 0 mm 5 m/s 768 mmHg 66%
12:00 +17°C° 0 mm 5 m/s 768 mmHg 64%
13:00 +17°C° 0 mm 5 m/s 768 mmHg 65%
14:00 +17°C° 0 mm 5 m/s 767 mmHg 66%
15:00 +16°C° 0 mm 5 m/s 767 mmHg 66%
16:00 +16°C° 0 mm 5 m/s 767 mmHg 70%
17:00 +15°C° 0 mm 5 m/s 767 mmHg 73%
18:00 +14°C° 0 mm 4 m/s 767 mmHg 76%
19:00 +13°C° 0 mm 4 m/s 767 mmHg 82%
20:00 +12°C° 0 mm 3 m/s 767 mmHg 88%
21:00 +11°C° 0 mm 3 m/s 767 mmHg 94%
22:00 +11°C° 0 mm 3 m/s 767 mmHg 93%
23:00 +11°C° 0 mm 3 m/s 766 mmHg 93%
Arată mai mult